Regional Weather Roundup
Issued by NWS

Home | Current Version | Previous Version | Text Only | Print | Product List | Glossary On
Versions: 1 2 3 4 5 6 7 8 9 10 11 12 13 14 15 16 17 18 19 20 21 22 23 24 25 26 27 28 29 30 31 32 33 34 35 36 37 38 39 40 41 42 43 44 45 46 47 48 49 50
000
ASUS43 KTOP 281059
RWRKS

WEATHER ROUNDUP FOR KANSAS
NATIONAL WEATHER SERVICE GOODLAND KS
600 AM CDT SUN AUG 28 2016

NOTE:  "FAIR" INDICATES FEW OR NO CLOUDS BELOW 12,000 FEET WITH NO
SIGNIFICANT WEATHER AND/OR OBSTRUCTIONS TO VISIBILITY.

KSZ001>006-013>018-027>032-041>047-281200-
NORTHWEST KANSAS

CITY           SKY/WX    TMP DP  RH WIND       PRES   REMARKS
GOODLAND       PTCLDY    62  56  80 SW9       30.08S
HAYS           CLOUDY    66  57  72 SE3       30.07R
HILL CITY      MOCLDY    64  63  96 E6        30.07R
RUSSELL        CLOUDY    68  67  96 SW6       30.06R
$$

KSZ061>065-074>080-084>089-281200-
SOUTHWEST KANSAS

CITY           SKY/WX    TMP DP  RH WIND       PRES   REMARKS
DODGE CITY     CLOUDY    65  62  90 S10       30.08S
ELKHART          N/A     59  55  87 SE7         N/A
GARDEN CITY    CLOUDY    65  58  78 E10G18    30.05F
GREAT BEND     CLOUDY    66  61  82 W8        30.08R
LIBERAL        CLOUDY    64  57  77 SW15      30.08F
$$

KSZ066>073-081>083-090>101-281200-
SOUTHEAST KANSAS

CITY           SKY/WX    TMP DP  RH WIND       PRES   REMARKS
CHANUTE        CLEAR     71  69  93 SE5       30.09R
COFFEYVILLE    CLEAR     69  68  96 CALM      30.09R
HUTCHINSON     PTCLDY    70  68  93 E6        30.06S
MEDICINE LODGE   N/A     70  66  87 S5        30.07R
NEWTON         CLOUDY    69  68  96 S5        30.08S
PARSONS        CLEAR     70  68  93 CALM      30.10R
WICHITA INTL   CLOUDY    73  70  90 S8        30.06S
WICHITA JABRA  PTCLDY    73  70  90 S9        30.07S
WINFIELD       CLOUDY    73  70  90 SE6       30.09R
$$

KSZ007>012-019>026-033>040-048>060-102>105-281200-
NORTHEAST KANSAS

CITY           SKY/WX    TMP DP  RH WIND       PRES   REMARKS
CONCORDIA      CLEAR     70  67  90 S8        30.06S
EMPORIA        CLEAR     70  68  93 S6        30.08R
LAWRENCE       CLEAR     69  69 100 E6        30.08R
MANHATTAN      CLEAR     69  68  96 CALM      30.06S
OLATHE IND     CLEAR     71  70  96 S3        30.10R
OLATHE EXE     CLEAR     70  69  97 S5        30.10R
SALINA         CLEAR     71  68  90 SE6       30.06S
TOPEKA BILLARD CLEAR     70  68  93 CALM      30.08R
TOPEKA FORBES  CLEAR     71  68  90 SE5       30.08R
$$




USA.gov is the U.S. government's official web portal to all federal, state and local government web resources and services.